TimeCST,TemperatureF,Dew PointF,Humidity,Sea Level PressureIn,VisibilityMPH,Wind Direction,Wind SpeedMPH,Gust SpeedMPH,PrecipitationIn,Events,Conditions,WindDirDegrees,DateUTC
12:08 AM,32.0,30.2,93,30.21,2.5,North,9.2,-,0.01,Snow,Light Snow,350,2011-12-09 06:08:00
12:15 AM,32.0,30.2,93,30.21,3.0,NNW,9.2,-,0.01,Snow,Light Snow,340,2011-12-09 06:15:00
12:23 AM,32.0,30.2,93,30.21,3.0,North,9.2,-,0.01,Snow,Light Snow,360,2011-12-09 06:23:00
12:52 AM,32.0,28.9,88,30.23,4.0,North,5.8,-,0.01,Snow,Light Snow,350,2011-12-09 06:52:00
1:03 AM,30.2,28.4,93,30.21,3.0,North,8.1,-,0.00,Snow,Light Snow,350,2011-12-09 07:03:00
1:21 AM,30.2,28.4,93,30.21,3.0,North,6.9,-,0.00,,Overcast,350,2011-12-09 07:21:00
1:26 AM,30.2,28.4,93,30.21,4.0,North,5.8,-,0.00,,Overcast,350,2011-12-09 07:26:00
1:52 AM,30.9,28.9,92,30.24,5.0,North,3.5,-,0.00,,Overcast,350,2011-12-09 07:52:00
2:52 AM,30.9,28.9,92,30.24,5.0,NNW,3.5,-,N/A,,Overcast,340,2011-12-09 08:52:00
3:40 AM,30.2,28.4,93,30.22,5.0,North,5.8,-,N/A,,Overcast,350,2011-12-09 09:40:00
3:52 AM,30.9,28.9,92,30.25,4.0,NNW,6.9,-,N/A,,Overcast,340,2011-12-09 09:52:00
4:52 AM,30.9,28.9,92,30.26,5.0,North,8.1,-,N/A,,Overcast,350,2011-12-09 10:52:00
5:52 AM,30.9,28.0,89,30.27,7.0,North,9.2,-,N/A,,Overcast,360,2011-12-09 11:52:00
6:06 AM,30.2,26.6,86,30.27,8.0,North,12.7,-,N/A,,Overcast,350,2011-12-09 12:06:00
6:52 AM,30.9,27.0,85,30.30,10.0,North,8.1,-,N/A,,Overcast,360,2011-12-09 12:52:00
7:52 AM,28.9,25.0,85,30.33,10.0,North,10.4,-,N/A,,Overcast,360,2011-12-09 13:52:00
8:52 AM,28.0,24.1,85,30.36,10.0,NNW,9.2,-,N/A,,Overcast,340,2011-12-09 14:52:00
9:52 AM,28.9,23.0,78,30.38,10.0,NNW,8.1,-,N/A,,Mostly Cloudy,330,2011-12-09 15:52:00
10:17 AM,30.2,21.2,69,30.36,10.0,NNW,6.9,-,N/A,,Scattered Clouds,340,2011-12-09 16:17:00
10:52 AM,32.0,19.9,61,30.39,10.0,North,9.2,-,N/A,,Partly Cloudy,360,2011-12-09 16:52:00
11:52 AM,33.1,18.0,54,30.38,10.0,North,8.1,-,N/A,,Clear,350,2011-12-09 17:52:00
12:52 PM,33.1,19.0,56,30.38,10.0,NW,9.2,-,N/A,,Clear,320,2011-12-09 18:52:00
1:52 PM,33.1,16.0,50,30.38,10.0,NW,12.7,-,N/A,,Clear,320,2011-12-09 19:52:00
2:52 PM,30.2,8.6,40,30.38,10.0,NNW,16.1,-,N/A,,Clear,330,2011-12-09 20:52:00
3:52 PM,30.0,10.0,43,30.43,10.0,NW,9.2,-,N/A,,Clear,310,2011-12-09 21:52:00
4:52 PM,27.0,9.0,47,30.45,10.0,NNW,6.9,-,N/A,,Clear,330,2011-12-09 22:52:00
5:52 PM,24.1,10.0,55,30.47,10.0,NNW,6.9,-,N/A,,Clear,330,2011-12-09 23:52:00
6:52 PM,24.1,9.0,53,30.49,10.0,NNW,6.9,-,N/A,,Clear,330,2011-12-10 00:52:00
7:52 PM,21.9,9.0,58,30.51,10.0,NNW,4.6,-,N/A,,Clear,330,2011-12-10 01:52:00
8:52 PM,21.0,9.0,60,30.52,10.0,NNW,4.6,-,N/A,,Clear,330,2011-12-10 02:52:00
9:52 PM,19.9,8.1,60,30.53,10.0,WNW,3.5,-,N/A,,Clear,300,2011-12-10 03:52:00
10:52 PM,19.0,9.0,65,30.54,10.0,WNW,3.5,-,N/A,,Clear,300,2011-12-10 04:52:00
11:52 PM,18.0,9.0,68,30.54,10.0,West,3.5,-,N/A,,Clear,280,2011-12-10 05:52:00